This demonstration page uses our WeatherBlox Daily Observations layout. Learn more.

Left ArrowRight Arrow

41.55636, -103.73856

Hourly Observations for October 19, 2021

Temp ( °F °C ) Dew Point ( °F °C ) Humidity (%) Winds ( mph kmh ) Pressure ( in mb ) Visibility ( mi km ) Precip ( " mm )
12:58 am 00:58 Mostly Cloudy 44 6.4 32 undefined 64 64 NE 5 7 29.71 1006 10 16 N/A
1:58 am 01:58 Mostly Clear 46 7.8 31 -0.3 57 57 SSW 5 7 29.70 1006 10 16 N/A
2:58 am 02:58 Mostly Cloudy 43 5.9 32 0.2 67 67 NNE 7 11 29.68 1005 10 16 N/A
3:58 am 03:58 Mostly Cloudy 42 5.7 34 1 72 72 NE 10 17 29.70 1006 10 16 N/A
4:58 am 04:58 Mostly Cloudy 41 4.9 34 1.1 77 77 WSW 6 9 29.70 1006 10 16 N/A
5:58 am 05:58 Mostly Cloudy 40 4.3 35 1.4 82 82 WSW 7 11 29.75 1008 10 16 N/A
6:58 am 06:58 Mostly Cloudy 41 5.2 35 1.5 77 77 NW 7 11 29.77 1008 10 16 N/A
7:58 am 07:58 Sunny 43 5.9 35 1.5 74 74 NNW 3 6 29.79 1009 10 16 N/A
8:58 am 08:58 Mostly Sunny 51 10.5 36 2.3 57 57 NNE 25 41 29.77 1008 10 16 N/A
9:58 am 09:58 Mostly Sunny 52 11 38 3.2 59 59 NNE 16 26 29.83 1010 10 16 N/A
10:58 am 10:58 Partly Cloudy 52 11.2 38 3.5 59 59 NNE 20 31 29.82 1010 10 16 N/A
11:58 am 11:58 Mostly Cloudy 50 10.1 37 3 62 62 N 17 28 29.83 1010 10 16 N/A
12:58 pm 12:58 Mostly Cloudy 49 9.4 37 2.7 63 63 N 17 28 29.87 1011 10 16 N/A
1:58 pm 13:58 Cloudy 47 8.5 37 2.9 68 68 NNE 14 22 29.91 1013 10 16 N/A
2:58 pm 14:58 Cloudy with Light Rain 44 6.4 38 3.1 80 80 NNE 15 24 29.98 1015 10 16 N/A
3:58 pm 15:58 Mostly Cloudy with Rain 38 3.4 36 2.4 93 93 NW 22 35 30.08 1019 5 8 0.15 3.81
4:58 pm 16:58 Cloudy with Rain 36 2.1 34 1.2 94 94 WNW 16 26 30.10 1019 10 16 0.11 2.79
5:58 pm 17:58 Cloudy with Light Rain 34 1 33 0.6 97 97 WNW 13 20 30.12 1020 10 16 0.02 0.51
6:58 pm 18:58 Cloudy with Light Snow 33 0.8 33 0.3 97 97 NW 15 24 30.12 1020 8 13 N/A
7:58 pm 19:58 Cloudy with Light Snow 33 0.7 33 0.3 97 97 NW 13 20 30.13 1020 10 16 N/A
8:58 pm 20:58 Cloudy with Light Rain/Snow 33 0.6 33 0.3 98 98 NW 10 17 30.13 1020 10 16 N/A
9:58 pm 21:58 Cloudy with Light Snow 32 0.2 32 -0.2 97 97 WNW 10 17 30.15 1021 3 4 0.01 0.25
10:58 pm 22:58 Cloudy with Light Snow 32 0.1 32 -0.2 98 98 NW 12 19 30.16 1021 3 5 0.01 0.25
11:58 pm 23:58 Cloudy with Light Rain/Snow 32 0.2 32 -0.1 98 98 NNW 8 13 30.17 1022 10 16 0.01 0.25

Powered by AerisWeather